Year,Month,Day,Hour,Minute,Value (Times are PST for temperature in C)
2013,05,01,00,00,2.30
2013,05,01,00,01,2.20
2013,05,01,00,02,2.20
2013,05,01,00,03,2.20
2013,05,01,00,04,2.20
2013,05,01,00,05,2.20
2013,05,01,00,06,2.10
2013,05,01,00,07,2.10
2013,05,01,00,08,2.10
2013,05,01,00,09,2.10
2013,05,01,00,10,2.10
2013,05,01,00,11,2.00
2013,05,01,00,12,2.00
2013,05,01,00,13,2.00
2013,05,01,00,14,1.90
2013,05,01,00,15,1.90
2013,05,01,00,16,1.90
2013,05,01,00,17,1.90
2013,05,01,00,18,1.90
2013,05,01,00,19,1.90
2013,05,01,00,20,1.80
2013,05,01,00,21,1.80
2013,05,01,00,22,1.80
2013,05,01,00,23,1.80
2013,05,01,00,24,1.80
2013,05,01,00,25,1.80
2013,05,01,00,26,1.80
2013,05,01,00,27,1.80
2013,05,01,00,28,1.70
2013,05,01,00,29,1.70
2013,05,01,00,30,1.70
2013,05,01,00,31,1.70
2013,05,01,00,32,1.70
2013,05,01,00,33,1.70
2013,05,01,00,34,1.70
2013,05,01,00,35,1.70
2013,05,01,00,36,1.70
2013,05,01,00,37,1.60
2013,05,01,00,38,1.60
2013,05,01,00,39,1.60
2013,05,01,00,40,1.60
2013,05,01,00,41,1.60
2013,05,01,00,42,1.60
2013,05,01,00,43,1.60
2013,05,01,00,44,1.60
2013,05,01,00,45,1.60
2013,05,01,00,46,1.50
2013,05,01,00,47,1.50
2013,05,01,00,48,1.50
2013,05,01,00,49,1.50
2013,05,01,00,50,1.50
2013,05,01,00,51,1.50
2013,05,01,00,52,1.50
2013,05,01,00,53,1.40
2013,05,01,00,54,1.40
2013,05,01,00,55,1.40
2013,05,01,00,56,1.40
2013,05,01,00,57,1.40
2013,05,01,00,58,1.40
2013,05,01,00,59,1.30
2013,05,01,01,00,1.30
2013,05,01,01,01,1.30
2013,05,01,01,02,1.30
2013,05,01,01,03,1.30
2013,05,01,01,04,1.20
2013,05,01,01,05,1.20
2013,05,01,01,06,1.20
2013,05,01,01,07,1.20
2013,05,01,01,08,1.20
2013,05,01,01,09,1.20
2013,05,01,01,10,1.20
2013,05,01,01,11,1.20
2013,05,01,01,12,1.20
2013,05,01,01,13,1.20
2013,05,01,01,14,1.20
2013,05,01,01,15,1.10
2013,05,01,01,16,1.10
2013,05,01,01,17,1.10
2013,05,01,01,18,1.10
2013,05,01,01,19,1.00
2013,05,01,01,20,1.00
2013,05,01,01,21,1.00
2013,05,01,01,22,1.00
2013,05,01,01,23,1.00
2013,05,01,01,24,1.00
2013,05,01,01,25,1.00
2013,05,01,01,26,0.90
2013,05,01,01,27,0.90
2013,05,01,01,28,0.90
2013,05,01,01,29,0.90
2013,05,01,01,30,0.90
2013,05,01,01,31,0.90
2013,05,01,01,32,0.90
2013,05,01,01,33,0.90
2013,05,01,01,34,0.90
2013,05,01,01,35,0.80
2013,05,01,01,36,0.80
2013,05,01,01,37,0.80
2013,05,01,01,38,0.80
2013,05,01,01,39,0.80
2013,05,01,01,40,0.80
2013,05,01,01,41,0.80
2013,05,01,01,42,0.80
2013,05,01,01,43,0.80
2013,05,01,01,44,0.70
2013,05,01,01,45,0.70
2013,05,01,01,46,0.70
2013,05,01,01,47,0.70
2013,05,01,01,48,0.70
2013,05,01,01,49,0.70
2013,05,01,01,50,0.70
2013,05,01,01,51,0.70
2013,05,01,01,52,0.70
2013,05,01,01,53,0.70
2013,05,01,01,54,0.60
2013,05,01,01,55,0.60
2013,05,01,01,56,0.60
2013,05,01,01,57,0.60
2013,05,01,01,58,0.60
2013,05,01,01,59,0.60
2013,05,01,02,00,0.60
2013,05,01,02,01,0.60
2013,05,01,02,02,0.50
2013,05,01,02,03,0.50
2013,05,01,02,04,0.50
2013,05,01,02,05,0.50
2013,05,01,02,06,0.50
2013,05,01,02,07,0.40
2013,05,01,02,08,0.40
2013,05,01,02,09,0.40
2013,05,01,02,10,0.40
2013,05,01,02,11,0.40
2013,05,01,02,12,0.40
2013,05,01,02,13,0.40
2013,05,01,02,14,0.40
2013,05,01,02,15,0.30
2013,05,01,02,16,0.30
2013,05,01,02,17,0.30
2013,05,01,02,18,0.30
2013,05,01,02,19,0.30
2013,05,01,02,20,0.30
2013,05,01,02,21,0.30
2013,05,01,02,22,0.30
2013,05,01,02,23,0.20
2013,05,01,02,24,0.20
2013,05,01,02,25,0.20
2013,05,01,02,26,0.20
2013,05,01,02,27,0.20
2013,05,01,02,28,0.20
2013,05,01,02,29,0.20
2013,05,01,02,30,0.20
2013,05,01,02,31,0.20
2013,05,01,02,32,0.20
2013,05,01,02,33,0.20
2013,05,01,02,34,0.20
2013,05,01,02,35,0.10
2013,05,01,02,36,0.10
2013,05,01,02,37,0.10
2013,05,01,02,38,0.10
2013,05,01,02,39,0.10
2013,05,01,02,40,0.10
2013,05,01,02,41,0.10
2013,05,01,02,42,0.00
2013,05,01,02,43,0.00
2013,05,01,02,44,0.00
2013,05,01,02,45,0.00
2013,05,01,02,46,0.00
2013,05,01,02,47,0.00
2013,05,01,02,48,0.00
2013,05,01,02,49,0.00
2013,05,01,02,50,0.00
2013,05,01,02,51,-0.10
2013,05,01,02,52,-0.10
2013,05,01,02,53,-0.10
2013,05,01,02,54,-0.10
2013,05,01,02,55,-0.10
2013,05,01,02,56,-0.10
2013,05,01,02,57,-0.10
2013,05,01,02,58,-0.10
2013,05,01,02,59,-0.10
2013,05,01,03,00,-0.10
2013,05,01,03,01,-0.10
2013,05,01,03,02,-0.20
2013,05,01,03,03,-0.20
2013,05,01,03,04,-0.20
2013,05,01,03,05,-0.20
2013,05,01,03,06,-0.20
2013,05,01,03,07,-0.20
2013,05,01,03,08,-0.20
2013,05,01,03,09,-0.20
2013,05,01,03,10,-0.20
2013,05,01,03,11,-0.20
2013,05,01,03,12,-0.20
2013,05,01,03,13,-0.30
2013,05,01,03,14,-0.30
2013,05,01,03,15,-0.30
2013,05,01,03,16,-0.30
2013,05,01,03,17,-0.30
2013,05,01,03,18,-0.30
2013,05,01,03,19,-0.30
2013,05,01,03,20,-0.30
2013,05,01,03,21,-0.30
2013,05,01,03,22,-0.30
2013,05,01,03,23,-0.30
2013,05,01,03,24,-0.40
2013,05,01,03,25,-0.40
2013,05,01,03,26,-0.40
2013,05,01,03,27,-0.40
2013,05,01,03,28,-0.40
2013,05,01,03,29,-0.40
2013,05,01,03,30,-0.40
2013,05,01,03,31,-0.40
2013,05,01,03,32,-0.50
2013,05,01,03,33,-0.50
2013,05,01,03,34,-0.50
2013,05,01,03,35,-0.50
2013,05,01,03,36,-0.50
2013,05,01,03,37,-0.50
2013,05,01,03,38,-0.60
2013,05,01,03,39,-0.60
2013,05,01,03,40,-0.60
2013,05,01,03,41,-0.60
2013,05,01,03,42,-0.60
2013,05,01,03,43,-0.60
2013,05,01,03,44,-0.60
2013,05,01,03,45,-0.60
2013,05,01,03,46,-0.70
2013,05,01,03,47,-0.70
2013,05,01,03,48,-0.70
2013,05,01,03,49,-0.70
2013,05,01,03,50,-0.70
2013,05,01,03,51,-0.70
2013,05,01,03,52,-0.70
2013,05,01,03,53,-0.70
2013,05,01,03,54,-0.70
2013,05,01,03,55,-0.70
2013,05,01,03,56,-0.70
2013,05,01,03,57,-0.70
2013,05,01,03,58,-0.70
2013,05,01,03,59,-0.70
2013,05,01,04,00,-0.70
2013,05,01,04,01,-0.70
2013,05,01,04,02,-0.70
2013,05,01,04,03,-0.80
2013,05,01,04,04,-0.80
2013,05,01,04,05,-0.80
2013,05,01,04,06,-0.80
2013,05,01,04,07,-0.80
2013,05,01,04,08,-0.80
2013,05,01,04,09,-0.80
2013,05,01,04,10,-0.80
2013,05,01,04,11,-0.80
2013,05,01,04,12,-0.80
2013,05,01,04,13,-0.80
2013,05,01,04,14,-0.80
2013,05,01,04,15,-0.80
2013,05,01,04,16,-0.90
2013,05,01,04,17,-0.90
2013,05,01,04,18,-0.90
2013,05,01,04,19,-0.90
2013,05,01,04,20,-0.90
2013,05,01,04,21,-0.90
2013,05,01,04,22,-0.80
2013,05,01,04,23,-0.80
2013,05,01,04,24,-0.80
2013,05,01,04,25,-0.80
2013,05,01,04,26,-0.80
2013,05,01,04,27,-0.80
2013,05,01,04,28,-0.80
2013,05,01,04,29,-0.80
2013,05,01,04,30,-0.80
2013,05,01,04,31,-0.80
2013,05,01,04,32,-0.80
2013,05,01,04,33,-0.80
2013,05,01,04,34,-0.80
2013,05,01,04,35,-0.80
2013,05,01,04,36,-0.80
2013,05,01,04,37,-0.80
2013,05,01,04,38,-0.80
2013,05,01,04,39,-0.80
2013,05,01,04,40,-0.80
2013,05,01,04,41,-0.80
2013,05,01,04,42,-0.90
2013,05,01,04,43,-0.90
2013,05,01,04,44,-0.90
2013,05,01,04,45,-0.90
2013,05,01,04,46,-0.90
2013,05,01,04,47,-0.90
2013,05,01,04,48,-1.00
2013,05,01,04,49,-0.90
2013,05,01,04,50,-1.00
2013,05,01,04,51,-1.00
2013,05,01,04,52,-1.00
2013,05,01,04,53,-1.00
2013,05,01,04,54,-1.00
2013,05,01,04,55,-1.00
2013,05,01,04,56,-1.00
2013,05,01,04,57,-1.00
2013,05,01,04,58,-1.00
2013,05,01,04,59,-1.00
2013,05,01,05,00,-1.00
2013,05,01,05,01,-1.00
2013,05,01,05,02,-1.00
2013,05,01,05,03,-1.00
2013,05,01,05,04,-1.00
2013,05,01,05,05,-1.10
2013,05,01,05,06,-1.10
2013,05,01,05,07,-1.10
2013,05,01,05,08,-1.10
2013,05,01,05,09,-1.10
2013,05,01,05,10,-1.10
2013,05,01,05,11,-1.10
2013,05,01,05,12,-1.10
2013,05,01,05,13,-1.10
2013,05,01,05,14,-1.10
2013,05,01,05,15,-1.10
2013,05,01,05,16,-1.10
2013,05,01,05,17,-1.10
2013,05,01,05,18,-1.10
2013,05,01,05,19,-1.10
2013,05,01,05,20,-1.10
2013,05,01,05,21,-1.00
2013,05,01,05,22,-1.00
2013,05,01,05,23,-1.00
2013,05,01,05,24,-1.00
2013,05,01,05,25,-1.00
2013,05,01,05,26,-1.00
2013,05,01,05,27,-1.00
2013,05,01,05,28,-1.10
2013,05,01,05,29,-1.10
2013,05,01,05,30,-1.10
2013,05,01,05,31,-1.10
2013,05,01,05,32,-1.10
2013,05,01,05,33,-1.10
2013,05,01,05,34,-1.10
2013,05,01,05,35,-1.10
2013,05,01,05,36,-1.10
2013,05,01,05,37,-1.10
2013,05,01,05,38,-1.10
2013,05,01,05,39,-1.20
2013,05,01,05,40,-1.20
2013,05,01,05,41,-1.20
2013,05,01,05,42,-1.20
2013,05,01,05,43,-1.20
2013,05,01,05,44,-1.20
2013,05,01,05,45,-1.20
2013,05,01,05,46,-1.20
2013,05,01,05,47,-1.20
2013,05,01,05,48,-1.20
2013,05,01,05,49,-1.20
2013,05,01,05,50,-1.20
2013,05,01,05,51,-1.20
2013,05,01,05,52,-1.10
2013,05,01,05,53,-1.10
2013,05,01,05,54,-1.10
2013,05,01,05,55,-1.10
2013,05,01,05,56,-1.10
2013,05,01,05,57,-1.10
2013,05,01,05,58,-1.10
2013,05,01,05,59,-1.10
2013,05,01,06,00,-1.10
2013,05,01,06,01,-1.10
2013,05,01,06,02,-1.10
2013,05,01,06,03,-1.10
2013,05,01,06,04,-1.10
2013,05,01,06,05,-1.10
2013,05,01,06,06,-1.10
2013,05,01,06,07,-1.10
2013,05,01,06,08,-1.00
2013,05,01,06,09,-1.10
2013,05,01,06,10,-1.10
2013,05,01,06,11,-1.10
2013,05,01,06,12,-1.10
2013,05,01,06,13,-1.10
2013,05,01,06,14,-1.10
2013,05,01,06,15,-1.10
2013,05,01,06,16,-1.10
2013,05,01,06,17,-1.10
2013,05,01,06,18,-1.10
2013,05,01,06,19,-1.10
2013,05,01,06,20,-1.10
2013,05,01,06,21,-1.10
2013,05,01,06,22,-1.10
2013,05,01,06,23,-1.10
2013,05,01,06,24,-1.10
2013,05,01,06,25,-1.10
2013,05,01,06,26,-1.10
2013,05,01,06,27,-1.10
2013,05,01,06,28,-1.10
2013,05,01,06,29,-1.10
2013,05,01,06,30,-1.10
2013,05,01,06,31,-1.10
2013,05,01,06,32,-1.10
2013,05,01,06,33,-1.10
2013,05,01,06,34,-1.10
2013,05,01,06,35,-1.10
2013,05,01,06,36,-1.10
2013,05,01,06,37,-1.10
2013,05,01,06,38,-1.10
2013,05,01,06,39,-1.10
2013,05,01,06,40,-1.10
2013,05,01,06,41,-1.10
2013,05,01,06,42,-1.10
2013,05,01,06,43,-1.10
2013,05,01,06,44,-1.10
2013,05,01,06,45,-1.10
2013,05,01,06,46,-1.10
2013,05,01,06,47,-1.00
2013,05,01,06,48,-1.00
2013,05,01,06,49,-1.00
2013,05,01,06,50,-1.00
2013,05,01,06,51,-1.00
2013,05,01,06,52,-1.00
2013,05,01,06,53,-1.00
2013,05,01,06,54,-0.90
2013,05,01,06,55,-0.90
2013,05,01,06,56,-0.90
2013,05,01,06,57,-0.90
2013,05,01,06,58,-0.90
2013,05,01,06,59,-0.90
2013,05,01,07,00,-0.90
2013,05,01,07,01,-0.90
2013,05,01,07,02,-0.90
2013,05,01,07,03,-0.90
2013,05,01,07,04,-0.90
2013,05,01,07,05,-0.90
2013,05,01,07,06,-0.80
2013,05,01,07,07,-0.80
2013,05,01,07,08,-0.80
2013,05,01,07,09,-0.80
2013,05,01,07,10,-0.80
2013,05,01,07,11,-0.80
2013,05,01,07,12,-0.80
2013,05,01,07,13,-0.80
2013,05,01,07,14,-0.80
2013,05,01,07,15,-0.80
2013,05,01,07,16,-0.80
2013,05,01,07,17,-0.80
2013,05,01,07,18,-0.80
2013,05,01,07,19,-0.80
2013,05,01,07,20,-0.80
2013,05,01,07,21,-0.70
2013,05,01,07,22,-0.70
2013,05,01,07,23,-0.70
2013,05,01,07,24,-0.70
2013,05,01,07,25,-0.70
2013,05,01,07,26,-0.60
2013,05,01,07,27,-0.60
2013,05,01,07,28,-0.60
2013,05,01,07,29,-0.50
2013,05,01,07,30,-0.50
2013,05,01,07,31,-0.50
2013,05,01,07,32,-0.40
2013,05,01,07,33,-0.40
2013,05,01,07,34,-0.30
2013,05,01,07,35,-0.30
2013,05,01,07,36,-0.30
2013,05,01,07,37,-0.20
2013,05,01,07,38,-0.20
2013,05,01,07,39,-0.20
2013,05,01,07,40,-0.10
2013,05,01,07,41,-0.10
2013,05,01,07,42,0.00
2013,05,01,07,43,0.00
2013,05,01,07,44,0.10
2013,05,01,07,45,0.10
2013,05,01,07,46,0.10
2013,05,01,07,47,0.20
2013,05,01,07,48,0.20
2013,05,01,07,49,0.20
2013,05,01,07,50,0.20
2013,05,01,07,51,0.30
2013,05,01,07,52,0.30
2013,05,01,07,53,0.30
2013,05,01,07,54,0.40
2013,05,01,07,55,0.40
2013,05,01,07,56,0.40
2013,05,01,07,57,0.50
2013,05,01,07,58,0.50
2013,05,01,07,59,0.60
2013,05,01,08,00,0.60
2013,05,01,08,01,0.70
2013,05,01,08,02,0.70
2013,05,01,08,03,0.70
2013,05,01,08,04,0.80
2013,05,01,08,05,0.80
2013,05,01,08,06,0.90
2013,05,01,08,07,0.90
2013,05,01,08,08,1.00
2013,05,01,08,09,1.00
2013,05,01,08,10,1.10
2013,05,01,08,11,1.20
2013,05,01,08,12,1.20
2013,05,01,08,13,1.30
2013,05,01,08,14,1.30
2013,05,01,08,15,1.40
2013,05,01,08,16,1.40
2013,05,01,08,17,1.50
2013,05,01,08,18,1.60
2013,05,01,08,19,1.70
2013,05,01,08,20,1.70
2013,05,01,08,21,1.80
2013,05,01,08,22,1.90
2013,05,01,08,23,1.90
2013,05,01,08,24,2.00
2013,05,01,08,25,2.10
2013,05,01,08,26,2.20
2013,05,01,08,27,2.20
2013,05,01,08,28,2.30
2013,05,01,08,29,2.30
2013,05,01,08,30,2.30
2013,05,01,08,31,2.40
2013,05,01,08,32,2.40
2013,05,01,08,33,2.50
2013,05,01,08,34,2.60
2013,05,01,08,35,2.60
2013,05,01,08,36,2.70
2013,05,01,08,37,2.70
2013,05,01,08,38,2.70
2013,05,01,08,39,2.80
2013,05,01,08,40,2.80
2013,05,01,08,41,2.90
2013,05,01,08,42,3.00
2013,05,01,08,43,3.00
2013,05,01,08,44,3.10
2013,05,01,08,45,3.20
2013,05,01,08,46,3.20
2013,05,01,08,47,3.30
2013,05,01,08,48,3.30
2013,05,01,08,49,3.40
2013,05,01,08,50,3.40
2013,05,01,08,51,3.50
2013,05,01,08,52,3.60
2013,05,01,08,53,3.70
2013,05,01,08,54,3.80
2013,05,01,08,55,3.90
2013,05,01,08,56,4.00
2013,05,01,08,57,4.00
2013,05,01,08,58,4.00
2013,05,01,08,59,4.10
2013,05,01,09,00,4.10
2013,05,01,09,01,4.00
2013,05,01,09,02,4.00
2013,05,01,09,03,4.00
2013,05,01,09,04,3.90
2013,05,01,09,05,3.90
2013,05,01,09,06,3.90
2013,05,01,09,07,3.90
2013,05,01,09,08,4.00
2013,05,01,09,09,4.00
2013,05,01,09,10,4.20
2013,05,01,09,11,4.20
2013,05,01,09,12,4.30
2013,05,01,09,13,4.30
2013,05,01,09,14,4.40
2013,05,01,09,15,4.50
2013,05,01,09,16,4.60
2013,05,01,09,17,4.60
2013,05,01,09,18,4.70
2013,05,01,09,19,4.80
2013,05,01,09,20,4.80
2013,05,01,09,21,4.90
2013,05,01,09,22,5.10
2013,05,01,09,23,5.20
2013,05,01,09,24,5.30
2013,05,01,09,25,5.30
2013,05,01,09,26,5.30
2013,05,01,09,27,5.30
2013,05,01,09,28,5.30
2013,05,01,09,29,5.30
2013,05,01,09,30,5.20
2013,05,01,09,31,5.20
2013,05,01,09,32,5.10
2013,05,01,09,33,5.10
2013,05,01,09,34,5.10
2013,05,01,09,35,5.10
2013,05,01,09,36,5.10
2013,05,01,09,37,5.10
2013,05,01,09,38,5.10
2013,05,01,09,39,5.10
2013,05,01,09,40,5.20
2013,05,01,09,41,5.20
2013,05,01,09,42,5.30
2013,05,01,09,43,5.30
2013,05,01,09,44,5.40
2013,05,01,09,45,5.40
2013,05,01,09,46,5.50
2013,05,01,09,47,5.60
2013,05,01,09,48,5.60
2013,05,01,09,49,5.70
2013,05,01,09,50,5.80
2013,05,01,09,51,5.80
2013,05,01,09,52,5.80
2013,05,01,09,53,5.80
2013,05,01,09,54,5.80
2013,05,01,09,55,5.80
2013,05,01,09,56,5.80
2013,05,01,09,57,5.90
2013,05,01,09,58,5.90
2013,05,01,09,59,6.00
2013,05,01,10,00,6.00
2013,05,01,10,01,6.00
2013,05,01,10,02,6.10
2013,05,01,10,03,6.20
2013,05,01,10,04,6.30
2013,05,01,10,05,6.40
2013,05,01,10,06,6.50
2013,05,01,10,07,6.60
2013,05,01,10,08,6.70
2013,05,01,10,09,6.70
2013,05,01,10,10,6.70
2013,05,01,10,11,6.70
2013,05,01,10,12,6.80
2013,05,01,10,13,6.80
2013,05,01,10,14,6.90
2013,05,01,10,15,7.00
2013,05,01,10,16,7.00
2013,05,01,10,17,7.10
2013,05,01,10,18,7.00
2013,05,01,10,19,7.00
2013,05,01,10,20,7.00
2013,05,01,10,21,7.10
2013,05,01,10,22,7.10
2013,05,01,10,23,7.20
2013,05,01,10,24,7.20
2013,05,01,10,25,7.30
2013,05,01,10,26,7.40
2013,05,01,10,27,7.50
2013,05,01,10,28,7.70
2013,05,01,10,29,7.80
2013,05,01,10,30,7.90
2013,05,01,10,31,7.90
2013,05,01,10,32,8.00
2013,05,01,10,33,8.10
2013,05,01,10,34,8.20
2013,05,01,10,35,8.30
2013,05,01,10,36,8.40
2013,05,01,10,37,8.50
2013,05,01,10,38,8.60
2013,05,01,10,39,8.60
2013,05,01,10,40,8.70
2013,05,01,10,41,8.80
2013,05,01,10,42,8.90
2013,05,01,10,43,8.90
2013,05,01,10,44,9.00
2013,05,01,10,45,9.10
2013,05,01,10,46,9.20
2013,05,01,10,47,9.20
2013,05,01,10,48,9.30
2013,05,01,10,49,9.30
2013,05,01,10,50,9.30
2013,05,01,10,51,9.30
2013,05,01,10,52,9.30
2013,05,01,10,53,9.30
2013,05,01,10,54,9.30
2013,05,01,10,55,9.30
2013,05,01,10,56,9.30
2013,05,01,10,57,9.30
2013,05,01,10,58,9.30
2013,05,01,10,59,9.30
2013,05,01,11,00,9.30
2013,05,01,11,01,9.30
2013,05,01,11,02,9.40
2013,05,01,11,03,9.40
2013,05,01,11,04,9.40
2013,05,01,11,05,9.40
2013,05,01,11,06,9.50
2013,05,01,11,07,9.50
2013,05,01,11,08,9.60
2013,05,01,11,09,9.70
2013,05,01,11,10,9.80
2013,05,01,11,11,9.80
2013,05,01,11,12,9.90
2013,05,01,11,13,10.00
2013,05,01,11,14,10.10
2013,05,01,11,15,10.10
2013,05,01,11,16,10.20
2013,05,01,11,17,10.20
2013,05,01,11,18,10.20
2013,05,01,11,19,10.20
2013,05,01,11,20,10.30
2013,05,01,11,21,10.30
2013,05,01,11,22,10.30
2013,05,01,11,23,10.30
2013,05,01,11,24,10.30
2013,05,01,11,25,10.30
2013,05,01,11,26,10.30
2013,05,01,11,27,10.30
2013,05,01,11,28,10.30
2013,05,01,11,29,10.30
2013,05,01,11,30,10.30
2013,05,01,11,31,10.40
2013,05,01,11,32,10.40
2013,05,01,11,33,10.50
2013,05,01,11,34,10.50
2013,05,01,11,35,10.60
2013,05,01,11,36,10.60
2013,05,01,11,37,10.70
2013,05,01,11,38,10.80
2013,05,01,11,39,10.90
2013,05,01,11,40,11.00
2013,05,01,11,41,11.10
2013,05,01,11,42,11.10
2013,05,01,11,43,11.30
2013,05,01,11,44,11.30
2013,05,01,11,45,11.30
2013,05,01,11,46,11.30
2013,05,01,11,47,11.40
2013,05,01,11,48,11.50
2013,05,01,11,49,11.60
2013,05,01,11,50,11.80
2013,05,01,11,51,11.90
2013,05,01,11,52,12.00
2013,05,01,11,53,12.10
2013,05,01,11,54,12.20
2013,05,01,11,55,12.30
2013,05,01,11,56,12.30
2013,05,01,11,57,12.30
2013,05,01,11,58,12.30
2013,05,01,11,59,12.30
2013,05,01,12,00,12.30
2013,05,01,12,01,12.30
2013,05,01,12,02,12.30
2013,05,01,12,03,12.30
2013,05,01,12,04,12.40
2013,05,01,12,05,12.40
2013,05,01,12,06,12.40
2013,05,01,12,07,12.50
2013,05,01,12,08,12.60
2013,05,01,12,09,12.80
2013,05,01,12,10,12.90
2013,05,01,12,11,13.00
2013,05,01,12,12,13.10
2013,05,01,12,13,13.20
2013,05,01,12,14,13.30
2013,05,01,12,15,13.30
2013,05,01,12,16,13.40
2013,05,01,12,17,13.40
2013,05,01,12,18,13.40
2013,05,01,12,19,13.40
2013,05,01,12,20,13.40
2013,05,01,12,21,13.40
2013,05,01,12,22,13.40
2013,05,01,12,23,13.30
2013,05,01,12,24,13.30
2013,05,01,12,25,13.20
2013,05,01,12,26,13.20
2013,05,01,12,27,13.10
2013,05,01,12,28,13.10
2013,05,01,12,29,13.10
2013,05,01,12,30,13.20
2013,05,01,12,31,13.20
2013,05,01,12,32,13.30
2013,05,01,12,33,13.30
2013,05,01,12,34,13.30
2013,05,01,12,35,13.40
2013,05,01,12,36,13.40
2013,05,01,12,37,13.50
2013,05,01,12,38,13.50
2013,05,01,12,39,13.40
2013,05,01,12,40,13.50
2013,05,01,12,41,13.50
2013,05,01,12,42,13.60
2013,05,01,12,43,13.50
2013,05,01,12,44,13.50
2013,05,01,12,45,13.50
2013,05,01,12,46,13.60
2013,05,01,12,47,13.60
2013,05,01,12,48,13.60
2013,05,01,12,49,13.60
2013,05,01,12,50,13.70
2013,05,01,12,51,13.70
2013,05,01,12,52,13.70
2013,05,01,12,53,13.80
2013,05,01,12,54,13.80
2013,05,01,12,55,13.70
2013,05,01,12,56,13.60
2013,05,01,12,57,13.70
2013,05,01,12,58,13.70
2013,05,01,12,59,13.70
2013,05,01,13,00,13.70
2013,05,01,13,01,13.70
2013,05,01,13,02,13.60
2013,05,01,13,03,13.60
2013,05,01,13,04,13.60
2013,05,01,13,05,13.60
2013,05,01,13,06,13.70
2013,05,01,13,07,13.70
2013,05,01,13,08,13.70
2013,05,01,13,09,13.70
2013,05,01,13,10,13.70
2013,05,01,13,11,13.70
2013,05,01,13,12,13.60
2013,05,01,13,13,13.60
2013,05,01,13,14,13.60
2013,05,01,13,15,13.60
2013,05,01,13,16,13.60
2013,05,01,13,17,13.70
2013,05,01,13,18,13.70
2013,05,01,13,19,13.70
2013,05,01,13,20,13.70
2013,05,01,13,21,13.80
2013,05,01,13,22,13.80
2013,05,01,13,23,13.80
2013,05,01,13,24,13.80
2013,05,01,13,25,13.90
2013,05,01,13,26,14.00
2013,05,01,13,27,14.00
2013,05,01,13,28,14.10
2013,05,01,13,29,14.20
2013,05,01,13,30,14.30
2013,05,01,13,31,14.30
2013,05,01,13,32,14.30
2013,05,01,13,33,14.30
2013,05,01,13,34,14.30
2013,05,01,13,35,14.30
2013,05,01,13,36,14.40
2013,05,01,13,37,14.50
2013,05,01,13,38,14.50
2013,05,01,13,39,14.50
2013,05,01,13,40,14.60
2013,05,01,13,41,14.50
2013,05,01,13,42,14.50
2013,05,01,13,43,14.50
2013,05,01,13,44,14.50
2013,05,01,13,45,14.50
2013,05,01,13,46,14.50
2013,05,01,13,47,14.50
2013,05,01,13,48,14.40
2013,05,01,13,49,14.50
2013,05,01,13,50,14.60
2013,05,01,13,51,14.60
2013,05,01,13,52,14.60
2013,05,01,13,53,14.60
2013,05,01,13,54,14.70
2013,05,01,13,55,14.80
2013,05,01,13,56,14.80
2013,05,01,13,57,14.90
2013,05,01,13,58,15.00
2013,05,01,13,59,15.10
2013,05,01,14,00,15.10
2013,05,01,14,01,15.10
2013,05,01,14,02,15.10
2013,05,01,14,03,15.10
2013,05,01,14,04,15.10
2013,05,01,14,05,15.20
2013,05,01,14,06,15.30
2013,05,01,14,07,15.40
2013,05,01,14,08,15.50
2013,05,01,14,09,15.50
2013,05,01,14,10,15.50
2013,05,01,14,11,15.50
2013,05,01,14,12,15.60
2013,05,01,14,13,15.60
2013,05,01,14,14,15.60
2013,05,01,14,15,15.60
2013,05,01,14,16,15.60
2013,05,01,14,17,15.60
2013,05,01,14,18,15.60
2013,05,01,14,19,15.50
2013,05,01,14,20,15.40
2013,05,01,14,21,15.40
2013,05,01,14,22,15.40
2013,05,01,14,23,15.40
2013,05,01,14,24,15.30
2013,05,01,14,25,15.30
2013,05,01,14,26,15.30
2013,05,01,14,27,15.30
2013,05,01,14,28,15.30
2013,05,01,14,29,15.20
2013,05,01,14,30,15.10
2013,05,01,14,31,15.10
2013,05,01,14,32,15.00
2013,05,01,14,33,15.00
2013,05,01,14,34,14.90
2013,05,01,14,35,14.90
2013,05,01,14,36,15.00
2013,05,01,14,37,15.00
2013,05,01,14,38,15.00
2013,05,01,14,39,15.00
2013,05,01,14,40,15.00
2013,05,01,14,41,15.00
2013,05,01,14,42,15.00
2013,05,01,14,43,15.00
2013,05,01,14,44,15.10
2013,05,01,14,45,15.10
2013,05,01,14,46,15.10
2013,05,01,14,47,15.10
2013,05,01,14,48,15.10
2013,05,01,14,49,15.20
2013,05,01,14,50,15.20
2013,05,01,14,51,15.20
2013,05,01,14,52,15.30
2013,05,01,14,53,15.30
2013,05,01,14,54,15.30
2013,05,01,14,55,15.40
2013,05,01,14,56,15.40
2013,05,01,14,57,15.50
2013,05,01,14,58,15.60
2013,05,01,14,59,15.60
2013,05,01,15,00,15.70
2013,05,01,15,01,15.70
2013,05,01,15,02,15.80
2013,05,01,15,03,15.70
2013,05,01,15,04,15.70
2013,05,01,15,05,15.70
2013,05,01,15,06,15.70
2013,05,01,15,07,15.70
2013,05,01,15,08,15.70
2013,05,01,15,09,15.70
2013,05,01,15,10,15.80
2013,05,01,15,11,15.80
2013,05,01,15,12,15.80
2013,05,01,15,13,15.80
2013,05,01,15,14,15.80
2013,05,01,15,15,15.90
2013,05,01,15,16,15.90
2013,05,01,15,17,16.00
2013,05,01,15,18,16.00
2013,05,01,15,19,16.00
2013,05,01,15,20,16.10
2013,05,01,15,21,16.10
2013,05,01,15,22,16.10
2013,05,01,15,23,16.10
2013,05,01,15,24,16.10
2013,05,01,15,25,16.00
2013,05,01,15,26,16.10
2013,05,01,15,27,16.10
2013,05,01,15,28,16.20
2013,05,01,15,29,16.20
2013,05,01,15,30,16.20
2013,05,01,15,31,16.20
2013,05,01,15,32,16.20
2013,05,01,15,33,16.20
2013,05,01,15,34,16.10
2013,05,01,15,35,16.10
2013,05,01,15,36,16.10
2013,05,01,15,37,16.10
2013,05,01,15,38,16.00
2013,05,01,15,39,16.00
2013,05,01,15,40,16.00
2013,05,01,15,41,15.90
2013,05,01,15,42,15.90
2013,05,01,15,43,15.90
2013,05,01,15,44,15.90
2013,05,01,15,45,15.90
2013,05,01,15,46,15.90
2013,05,01,15,47,15.90
2013,05,01,15,48,16.00
2013,05,01,15,49,16.00
2013,05,01,15,50,16.10
2013,05,01,15,51,16.20
2013,05,01,15,52,16.20
2013,05,01,15,53,16.10
2013,05,01,15,54,16.10
2013,05,01,15,55,16.10
2013,05,01,15,56,16.10
2013,05,01,15,57,16.10
2013,05,01,15,58,16.20
2013,05,01,15,59,16.20
2013,05,01,16,00,16.20
2013,05,01,16,01,16.20
2013,05,01,16,02,16.30
2013,05,01,16,03,16.20
2013,05,01,16,04,16.20
2013,05,01,16,05,16.10
2013,05,01,16,06,16.10
2013,05,01,16,07,16.00
2013,05,01,16,08,16.00
2013,05,01,16,09,15.90
2013,05,01,16,10,15.90
2013,05,01,16,11,15.90
2013,05,01,16,12,15.90
2013,05,01,16,13,15.90
2013,05,01,16,14,15.90
2013,05,01,16,15,15.90
2013,05,01,16,16,15.90
2013,05,01,16,17,15.90
2013,05,01,16,18,16.00
2013,05,01,16,19,16.00
2013,05,01,16,20,16.00
2013,05,01,16,21,16.00
2013,05,01,16,22,16.00
2013,05,01,16,23,16.00
2013,05,01,16,24,15.90
2013,05,01,16,25,15.90
2013,05,01,16,26,15.90
2013,05,01,16,27,15.90
2013,05,01,16,28,15.90
2013,05,01,16,29,15.90
2013,05,01,16,30,15.90
2013,05,01,16,31,15.90
2013,05,01,16,32,15.80
2013,05,01,16,33,15.80
2013,05,01,16,34,15.80
2013,05,01,16,35,15.70
2013,05,01,16,36,15.70
2013,05,01,16,37,15.60
2013,05,01,16,38,15.50
2013,05,01,16,39,15.40
2013,05,01,16,40,15.30
2013,05,01,16,41,15.20
2013,05,01,16,42,15.10
2013,05,01,16,43,15.10
2013,05,01,16,44,15.00
2013,05,01,16,45,15.00
2013,05,01,16,46,15.00
2013,05,01,16,47,15.00
2013,05,01,16,48,14.90
2013,05,01,16,49,14.90
2013,05,01,16,50,14.90
2013,05,01,16,51,14.90
2013,05,01,16,52,14.90
2013,05,01,16,53,14.90
2013,05,01,16,54,14.90
2013,05,01,16,55,14.90
2013,05,01,16,56,14.90
2013,05,01,16,57,14.90
2013,05,01,16,58,14.90
2013,05,01,16,59,14.80
2013,05,01,17,00,14.80
2013,05,01,17,01,14.80
2013,05,01,17,02,14.80
2013,05,01,17,03,14.80
2013,05,01,17,04,14.80
2013,05,01,17,05,14.80
2013,05,01,17,06,14.80
2013,05,01,17,07,14.80
2013,05,01,17,08,14.80
2013,05,01,17,09,14.80
2013,05,01,17,10,14.80
2013,05,01,17,11,14.80
2013,05,01,17,12,14.80
2013,05,01,17,13,14.70
2013,05,01,17,14,14.70
2013,05,01,17,15,14.70
2013,05,01,17,16,14.70
2013,05,01,17,17,14.60
2013,05,01,17,18,14.60
2013,05,01,17,19,14.60
2013,05,01,17,20,14.60
2013,05,01,17,21,14.60
2013,05,01,17,22,14.60
2013,05,01,17,23,14.60
2013,05,01,17,24,14.60
2013,05,01,17,25,14.50
2013,05,01,17,26,14.50
2013,05,01,17,27,14.50
2013,05,01,17,28,14.50
2013,05,01,17,29,14.40
2013,05,01,17,30,14.40
2013,05,01,17,31,14.40
2013,05,01,17,32,14.40
2013,05,01,17,33,14.40
2013,05,01,17,34,14.40
2013,05,01,17,35,14.40
2013,05,01,17,36,14.40